Simultaneous Nadir Overpasses (SNOs) Predictions

Prediction of SNOs between GOES-15 and METOP-B Satellite Orbit:

Table of predicted SNOs for the next 14.0 days since TLE Epoch: 9/27/2019
Index Date Time (GOES-15) GOES-15 Lat,Lon METOP-B Lat,Lon Distance(km) Time Diff (sec)
1 09/28/2019 18:00:34 -0.27,-127.69 -0.16,-128.12 50.31 80
2 10/01/2019 05:58:54 0.28,-127.55 0.21,-127.72 19.79 80
3 10/03/2019 17:59:46 -0.28,-127.49 -0.33,-127.29 22.86 80
4 10/06/2019 05:58:06 0.28,-127.34 0.40,-126.88 52.86 80
5 10/07/2019 18:14:17 -0.29,-127.30 0.61,-131.44 471.13 80
6 10/08/2019 17:56:16 -0.28,-127.26 -0.45,-126.44 93.66 80
7 10/10/2019 06:12:36 0.29,-127.16 -0.60,-131.03 440.84 80
8 10/11/2019 05:54:36 0.28,-127.12 0.53,-126.03 123.40 80




NCC Satellite Simultaneous Nadir Overpasses (SNOs) Prediction Service
